Home   Weather   Plymouth   Past weeks

Flag for United Kingdom Past Weather in Plymouth, England, United Kingdom — Yesterday and Last 2 Weeks

Now
36 °F

Clear.


Feels Like: 36 °F
Forecast: 44 / 59 °F
Wind: 2 mph from North

Location: Exeter Airport

Current Time: Apr 23, 2017 at 6:25:14 am

Latest Report: Apr 23, 2017 at 5:50 am


Visibility: 10 mi

Pressure: 30.33 "Hg

Humidity: 93%

Dew Point: 34 °F

Location of PlymouthLocation

Past Weather in Plymouth — Graph

°F

Plymouth Temperature Yesterday

Maximum temperature yesterday: 63 °F (at 2:20 pm)
Minimum temperature yesterday: 43 °F (at 11:50 pm)
Average temperature yesterday: 54 °F

High & Low Weather Summary for the Past Weeks

 TemperatureHumidityPressure
High68 °F (Apr 9, 2:50 pm)100% (Apr 8, 5:20 am)30.63 "Hg (Apr 8, 5:20 am)
Low34 °F (Apr 8, 6:20 am)35% (Apr 18, 3:50 pm)30.04 "Hg (Apr 14, 3:50 pm)
Average50 °F75%30.30 "Hg
* Reported Apr 8 5:20 am — Apr 23 5:20 am, Plymouth, Weather by CustomWeather, © 2017

Note: Actual official high and low records may vary slightly from our data, if they occured in-between our weather recording intervals... More about our weather records

Advertising

Plymouth Weather History for the Previous 24 Hours

Scroll right to see more
 ConditionsComfort  
Time TempWeatherWind HumidityBarometerVisibility
5:20 am
Sun, Apr 23
36 °FClear.1 mph100%30.33 "Hg10 mi
11:50 pm
Sat, Apr 22
43 °FClear.2 mph87%30.36 "Hg10 mi
11:20 pm45 °FClear.2 mph87%30.36 "Hg10 mi
10:50 pm48 °FClear.2 mph76%30.36 "Hg10 mi
10:20 pm48 °FClear.1 mph76%30.36 "Hg10 mi
9:50 pm50 °FClear.6 mph71%30.36 "Hg10 mi
9:20 pm50 °FClear.8 mph71%30.33 "Hg10 mi
8:50 pm52 °FClear.7 mph72%30.33 "Hg10 mi
8:20 pm54 °FClear.8 mph67%30.33 "Hg10 mi
7:50 pm57 °FSunny.8 mph59%30.33 "Hg10 mi
7:20 pm59 °FPassing clouds.12 mph55%30.33 "HgN/A
6:50 pm59 °FPassing clouds.10 mph59%30.33 "HgN/A
6:20 pm59 °FPassing clouds.12 mph59%30.33 "HgN/A
5:50 pm61 °FScattered clouds.8 mph59%30.33 "HgN/A
5:20 pm61 °FScattered clouds.7 mph59%30.33 "HgN/A
4:50 pm61 °FScattered clouds.5 mph55%30.33 "HgN/A
4:20 pm63 °FScattered clouds.6 mph52%30.33 "HgN/A
3:50 pm61 °FScattered clouds.7 mph55%30.33 "HgN/A
3:20 pm63 °FScattered clouds.6 mph52%30.36 "HgN/A
2:50 pm63 °FScattered clouds.5 mph52%30.36 "HgN/A
2:20 pm63 °FScattered clouds.6 mph49%30.36 "HgN/A
1:50 pm59 °FScattered clouds.2 mph55%30.39 "HgN/A
1:20 pm61 °FScattered clouds.7 mph55%30.39 "HgN/A
12:50 pm59 °FScattered clouds.3 mph59%30.39 "HgN/A
12:20 pm59 °FScattered clouds.6 mph59%30.39 "HgN/A
11:50 am57 °FScattered clouds.5 mph63%30.39 "HgN/A
11:20 am55 °FScattered clouds.6 mph67%30.42 "HgN/A
10:50 am55 °FScattered clouds.6 mph72%30.42 "HgN/A
10:20 am55 °FPartly sunny.6 mph72%30.42 "HgN/A
9:50 am54 °FPartly sunny.5 mph77%30.42 "HgN/A
9:20 am54 °FSunny.3 mph77%30.42 "Hg10 mi
8:50 am52 °FSunny.3 mph82%30.42 "Hg10 mi
8:20 am50 °FPartly sunny.2 mph82%30.42 "HgN/A
7:20 am48 °FPartly sunny.No wind87%30.42 "HgN/A
6:50 am48 °FPartly sunny.No wind82%30.42 "HgN/A
6:20 am48 °FPartly sunny.1 mph82%30.39 "HgN/A
Weather by CustomWeather, © 2017

See weather overviewHow to use our weather pages